FW0840 Weather Reports


time (UTC)temp
F
wind
direction
speed
knots
gust
knots
rain 1hr
in
rain 24hr
in
rain mn
in
humidity
%
barometer
mb
20190326063011 46 258 0.0 0.0 0.00 0.00 0.00 96 1017.0
20190326062511 46 261 2.6 0.0 0.00 0.00 0.00 96 1016.9
20190326062011 46 21 0.9 0.0 0.00 0.00 0.00 96 1016.9
20190326061511 46 279 0.9 0.0 0.00 0.00 0.00 97 1016.8
20190326061011 46 286 1.7 0.0 0.00 0.00 0.00 96 1016.8
20190326060511 46 332 0.0 0.0 0.00 0.00 0.00 97 1016.8
20190326060011 46 306 0.0 0.0 0.00 0.00 0.00 96 1016.8
20190326055511 46 252 1.7 0.0 0.00 0.00 0.00 97 1016.7
20190326055011 46 287 1.7 0.0 0.00 0.00 0.00 96 1016.7
20190326054511 46 291 0.9 0.0 0.00 0.00 0.00 96 1016.7
20190326054011 46 342 1.7 0.0 0.00 0.00 0.00 96 1016.6
20190326053511 46 245 1.7 0.0 0.00 0.00 0.00 96 1016.6
20190326053010 46 280 0.9 0.0 0.00 0.00 0.00 96 1016.5
20190326052510 46 286 1.7 0.0 0.00 0.00 0.00 96 1016.3
20190326052010 46 316 1.7 0.0 0.00 0.00 0.00 96 1016.3
20190326051510 46 260 0.0 0.0 0.00 0.00 0.00 96 1016.3
20190326051010 46 269 1.7 0.0 0.00 0.00 0.00 96 1016.4
20190326050510 46 97 1.7 0.0 0.00 0.00 0.00 96 1016.2
20190326050011 46 348 1.7 0.0 0.00 0.00 0.00 96 1016.2
20190326045510 46 156 0.9 0.0 0.00 0.00 0.00 96 1016.1
20190326045010 46 328 2.6 0.0 0.00 0.00 0.00 96 1016.3
20190326044510 46 327 1.7 0.0 0.00 0.00 0.00 96 1016.1
20190326044013 46 73 0.0 0.0 0.00 0.00 0.00 96 1016.2
20190326043511 46 279 3.5 0.0 0.00 0.00 0.00 96 1016.1
20190326043010 46 62 1.7 0.0 0.00 0.00 0.00 96 1016.2
20190326042511 46 254 1.7 0.0 0.00 0.00 0.00 96 1016.1
20190326042010 46 256 1.7 0.0 0.00 0.00 0.00 96 1016.1
20190326041510 46 72 1.7 0.0 0.00 0.00 0.00 95 1016.0
20190326041010 46 348 1.7 0.0 0.00 0.00 0.00 96 1015.9
20190326040511 46 321 3.5 0.0 0.00 0.00 0.00 96 1015.9
20190326040011 46 329 1.7 0.0 0.00 0.00 0.00 96 1015.9
20190326035510 46 244 0.9 0.0 0.00 0.00 0.00 95 1015.7
20190326035010 46 253 0.0 0.0 0.00 0.00 0.00 95 1015.8
20190326034510 47 246 1.7 0.0 0.00 0.00 0.00 95 1015.8
20190326034011 47 281 0.0 0.0 0.00 0.00 0.00 95 1015.6
20190326033510 47 227 6.1 0.0 0.00 0.00 0.00 95 1015.4
20190326033010 47 233 6.1 0.0 0.00 0.00 0.00 95 1015.4
20190326032510 47 284 0.9 0.0 0.00 0.00 0.00 95 1015.4
20190326032010 47 254 6.1 0.0 0.00 0.00 0.00 95 1015.3
20190326031511 47 237 5.2 0.0 0.00 0.00 0.00 95 1015.3
20190326031010 47 338 0.0 0.0 0.00 0.00 0.00 95 1015.1
20190326030511 47 238 1.7 0.0 0.00 0.00 0.00 95 1015.0
20190326030010 47 262 0.9 0.0 0.00 0.00 0.00 95 1015.1
20190326025510 47 314 1.7 0.0 0.00 0.00 0.00 95 1015.1
20190326025010 47 36 6.1 0.0 0.00 0.00 0.00 95 1015.1
20190326024511 47 245 1.7 0.0 0.00 0.00 0.00 95 1015.2
20190326024011 47 250 0.9 0.0 0.00 0.00 0.00 95 1015.2
20190326023511 47 242 1.7 0.0 0.00 0.00 0.00 95 1015.2
20190326023011 47 259 1.7 0.0 0.00 0.00 0.00 95 1015.3
20190326022510 47 234 0.0 0.0 0.00 0.00 0.00 94 1015.4
20190326022010 47 254 0.9 0.0 0.00 0.00 0.00 94 1015.4
20190326021511 47 313 1.7 0.0 0.00 0.00 0.00 94 1015.3
20190326021010 47 248 2.6 0.0 0.00 0.00 0.00 94 1015.3
20190326020511 47 184 1.7 0.0 0.00 0.00 0.00 94 1015.2
20190326020011 47 240 2.6 0.0 0.00 0.00 0.00 94 1015.3
20190326015511 47 254 0.0 0.0 0.00 0.00 0.00 94 1015.3
20190326015010 47 211 1.7 0.0 0.00 0.00 0.00 93 1015.3
20190326014511 47 216 4.3 0.0 0.00 0.00 0.00 94 1015.3
20190326014010 47 227 4.3 0.0 0.00 0.00 0.00 93 1015.4
20190326013510 48 219 3.5 0.0 0.00 0.00 0.00 93 1015.4
20190326013011 48 240 2.6 0.0 0.00 0.00 0.00 93 1015.4
20190326012511 48 259 1.7 0.0 0.00 0.00 0.00 94 1015.4
20190326012011 48 238 2.6 0.0 0.00 0.00 0.00 94 1015.4
20190326011511 48 268 0.9 0.0 0.00 0.00 0.00 94 1015.6
20190326011010 48 247 0.9 0.0 0.00 0.00 0.00 94 1015.6
20190326010510 48 252 0.9 0.0 0.00 0.00 0.00 94 1015.6
20190326010011 48 261 0.9 0.0 0.00 0.00 0.00 94 1015.7
20190326005511 48 288 0.9 0.0 0.00 0.00 0.00 94 1015.7
20190326005011 48 254 0.9 0.0 0.00 0.00 0.00 94 1015.6
20190326004511 48 254 0.9 0.0 0.00 0.00 0.00 94 1015.6
20190326004011 48 247 0.9 0.0 0.00 0.00 0.00 94 1015.5
20190326003511 48 225 0.9 0.0 0.00 0.00 0.00 94 1015.7
20190326003011 48 236 1.7 0.0 0.00 0.00 0.00 94 1015.6
20190326002511 48 236 0.0 0.0 0.00 0.00 0.00 93 1015.5
20190326002011 48 309 0.9 0.0 0.00 0.00 0.00 93 1015.5
20190326001511 48 267 0.9 0.0 0.00 0.00 0.00 93 1015.3
20190326001011 48 279 0.9 0.0 0.00 0.00 0.00 94 1015.2
20190326000511 48 217 4.3 0.0 0.00 0.00 0.00 94 1015.1
20190326000012 48 284 3.5 0.0 0.00 0.00 0.00 94 1014.9
20190325235511 48 282 2.6 0.0 0.00 0.00 0.00 94 1015.0
20190325235011 48 296 0.9 0.0 0.00 0.00 0.00 94 1014.9
20190325234512 48 229 1.7 0.0 0.00 0.00 0.00 94 1015.0
20190325234011 48 241 0.0 0.0 0.00 0.00 0.00 94 1015.0
20190325233511 48 241 0.0 0.0 0.00 0.00 0.00 94 1014.9
20190325233011 48 241 0.0 0.0 0.00 0.00 0.00 94 1015.1
20190325232511 48 241 0.0 0.0 0.00 0.00 0.00 94 1015.0
20190325232011 48 241 0.0 0.0 0.00 0.00 0.00 94 1015.3
20190325231511 48 241 0.0 0.0 0.00 0.00 0.00 94 1015.3
20190325231011 48 241 0.0 0.0 0.00 0.00 0.00 94 1015.3
20190325230511 48 241 0.9 0.0 0.00 0.00 0.00 94 1015.2
20190325230011 48 248 0.9 0.0 0.00 0.00 0.00 94 1015.2
20190325225511 48 248 2.6 0.0 0.00 0.00 0.00 94 1015.1
20190325225011 48 249 0.9 0.0 0.00 0.00 0.00 94 1015.1
20190325224510 48 280 0.9 0.0 0.00 0.00 0.00 94 1015.2
20190325224011 48 242 0.9 0.0 0.00 0.00 0.00 93 1015.2
20190325223511 48 233 0.9 0.0 0.00 0.00 0.00 93 1015.1
20190325223011 49 259 3.5 0.0 0.00 0.00 0.00 93 1015.1
20190325222511 50 282 2.6 0.0 0.00 0.00 0.00 93 1015.3
20190325222011 50 161 0.0 0.0 0.00 0.00 0.00 93 1015.2
20190325221511 51 161 0.0 0.0 0.00 0.00 0.00 93 1014.9
20190325221011 51 161 0.0 0.0 0.00 0.00 0.00 92 1014.7
20190325220512 51 161 0.0 0.0 0.00 0.00 0.00 91 1014.6
20190325220010 51 161 0.9 0.0 0.00 0.00 0.00 89 1014.5
20190325215510 50 161 0.0 0.0 0.00 0.00 0.00 87 1014.3
20190325215010 50 161 0.0 0.0 0.00 0.00 0.00 89 1014.2
20190325214511 51 161 0.0 0.0 0.00 0.00 0.00 90 1014.1
20190325214010 51 161 0.0 0.0 0.00 0.00 0.00 90 1014.1
20190325213510 50 161 0.0 0.0 0.00 0.00 0.00 91 1014.2
20190325213010 51 161 0.0 0.0 0.00 0.00 0.00 90 1014.2
20190325212511 51 161 0.0 0.0 0.00 0.00 0.00 89 1014.5
20190325212010 51 161 0.0 0.0 0.00 0.00 0.00 90 1014.7
20190325211510 52 161 0.0 0.0 0.00 0.00 0.00 88 1014.7
20190325211010 52 161 0.0 0.0 0.00 0.00 0.00 84 1015.5
20190325210510 52 161 0.0 0.0 0.00 0.00 0.00 81 1015.5
20190325210010 52 161 0.0 0.0 0.00 0.00 0.00 83 1015.4
20190325205510 52 161 0.0 0.0 0.00 0.00 0.00 82 1015.5
20190325205010 52 161 0.0 0.0 0.00 0.00 0.00 83 1015.5
20190325204510 52 161 0.0 0.0 0.00 0.00 0.00 85 1015.5
20190325204010 52 161 0.0 0.0 0.00 0.00 0.00 86 1015.4
20190325203510 52 161 0.0 0.0 0.00 0.00 0.00 86 1015.6
20190325203010 52 161 0.0 0.0 0.00 0.00 0.00 87 1015.6
20190325202510 52 161 0.0 0.0 0.00 0.00 0.00 80 1015.7
20190325202011 52 161 0.0 0.0 0.00 0.00 0.00 82 1015.7
20190325201510 52 161 0.0 0.0 0.00 0.00 0.00 81 1015.8
20190325201011 53 161 0.0 0.0 0.00 0.00 0.00 80 1015.9
20190325200512 53 161 0.9 0.0 0.00 0.00 0.00 77 1016.1
20190325200010 53 161 0.0 0.0 0.00 0.00 0.00 78 1016.0
20190325195511 53 161 0.0 0.0 0.00 0.00 0.00 74 1016.1
20190325195010 53 161 0.0 0.0 0.00 0.00 0.00 77 1015.9
20190325194510 53 161 0.0 0.0 0.00 0.00 0.00 74 1016.1
20190325194010 53 161 0.9 0.0 0.00 0.00 0.00 75 1016.1
20190325193511 53 161 1.7 0.0 0.00 0.00 0.00 75 1016.0
20190325193011 53 161 1.7 0.0 0.00 0.00 0.00 79 1016.0
20190325192511 53 161 0.9 0.0 0.00 0.00 0.00 80 1016.1
20190325192010 52 162 1.7 0.0 0.00 0.00 0.00 79 1016.3
20190325191510 53 162 0.9 0.0 0.00 0.00 0.00 83 1016.4
20190325191011 52 162 1.7 0.0 0.00 0.00 0.00 81 1016.4
20190325190512 52 162 1.7 0.0 0.00 0.00 0.00 80 1016.5
20190325190011 52 162 0.0 0.0 0.00 0.00 0.00 80 1016.5
20190325185510 52 162 0.0 0.0 0.00 0.00 0.00 78 1016.5
20190325185010 52 162 0.0 0.0 0.00 0.00 0.00 84 1016.5
20190325184511 52 162 0.0 0.0 0.00 0.00 0.00 82 1016.7
20190325184011 53 162 0.0 0.0 0.00 0.00 0.00 77 1016.7
20190325183511 53 162 0.0 0.0 0.00 0.00 0.00 81 1016.7
20190325183010 54 162 0.0 0.0 0.00 0.00 0.00 77 1016.9
20190325182510 54 121 1.7 0.0 0.00 0.00 0.00 75 1016.9
20190325182010 55 121 0.0 0.0 0.00 0.00 0.00 68 1017.3
20190325181510 56 121 0.9 0.0 0.00 0.00 0.00 60 1017.2
20190325181011 56 121 0.0 0.0 0.00 0.00 0.00 61 1016.9
20190325180511 56 121 0.0 0.0 0.00 0.00 0.00 58 1016.9
20190325180011 56 121 0.0 0.0 0.00 0.00 0.00 59 1016.9
20190325175511 57 121 0.0 0.0 0.00 0.00 0.00 59 1016.9
20190325175011 57 121 0.0 0.0 0.00 0.00 0.00 59 1017.0
20190325174511 57 121 0.0 0.0 0.00 0.00 0.00 58 1017.1
20190325174011 57 121 0.0 1.7 0.00 0.00 0.00 58 1017.0
20190325173511 57 121 1.7 2.6 0.00 0.00 0.00 58 1017.1
20190325173011 56 121 0.9 2.6 0.00 0.00 0.00 59 1017.1
20190325172511 56 121 0.9 1.7 0.00 0.00 0.00 59 1017.3
20190325172010 56 121 0.0 1.7 0.00 0.00 0.00 57 1017.4
20190325171511 56 121 0.0 0.0 0.00 0.00 0.00 57 1017.4
20190325171011 56 121 0.9 2.6 0.00 0.00 0.00 58 1017.4
20190325170510 56 121 0.0 2.6 0.00 0.00 0.00 56 1017.5
20190325170011 57 121 0.9 1.7 0.00 0.00 0.00 55 1017.4
20190325165511 57 121 0.0 2.6 0.00 0.00 0.00 55 1017.4
20190325165011 58 121 1.7 2.6 0.00 0.00 0.00 55 1017.5
20190325164511 57 121 0.0 1.7 0.00 0.00 0.00 56 1017.5
20190325164011 57 55 0.9 0.0 0.00 0.00 0.00 56 1017.6
20190325163511 57 55 0.0 1.7 0.00 0.00 0.00 57 1017.6
20190325163011 57 55 0.0 4.3 0.00 0.00 0.00 56 1017.8
20190325162511 57 55 1.7 4.3 0.00 0.00 0.00 54 1017.8
20190325162011 57 209 1.7 2.6 0.00 0.00 0.00 53 1018.0
20190325161511 57 209 0.0 2.6 0.00 0.00 0.00 53 1018.1
20190325161011 57 209 0.0 2.6 0.00 0.00 0.00 55 1018.2
20190325160512 57 209 0.0 0.0 0.00 0.00 0.00 55 1018.3
20190325160011 56 209 0.0 0.0 0.00 0.00 0.00 55 1018.3
20190325155511 56 209 0.0 0.0 0.00 0.00 0.00 54 1018.4
20190325155011 56 209 0.0 0.0 0.00 0.00 0.00 56 1018.5
20190325154511 56 209 0.0 0.0 0.00 0.00 0.00 54 1018.3
20190325154011 56 236 1.7 0.0 0.00 0.00 0.00 56 1018.2
20190325153511 57 236 0.0 0.0 0.00 0.00 0.00 57 1018.2
20190325153011 57 236 0.9 0.0 0.00 0.00 0.00 52 1018.1
20190325152511 58 236 1.7 0.0 0.00 0.00 0.00 51 1018.4
20190325152011 58 236 1.7 0.0 0.00 0.00 0.00 52 1018.4
20190325151511 58 236 1.7 0.0 0.00 0.00 0.00 51 1018.6
20190325151011 58 238 2.6 0.0 0.00 0.00 0.00 50 1018.7
20190325150511 58 238 1.7 0.0 0.00 0.00 0.00 52 1018.5
20190325150012 58 238 2.6 0.0 0.00 0.00 0.00 50 1018.6
20190325145511 58 182 1.7 0.0 0.00 0.00 0.00 53 1018.5
20190325145011 57 181 0.9 0.0 0.00 0.00 0.00 51 1018.5
20190325144511 57 177 2.6 0.0 0.00 0.00 0.00 52 1018.6
20190325144011 58 176 0.9 0.0 0.00 0.00 0.00 52 1018.7
20190325143511 57 174 0.0 0.0 0.00 0.00 0.00 52 1018.7
20190325143010 57 174 1.7 0.0 0.00 0.00 0.00 51 1018.7
20190325142510 56 155 0.9 0.0 0.00 0.00 0.00 51 1018.7
20190325142010 56 151 0.0 0.0 0.00 0.00 0.00 51 1018.9
20190325141511 56 151 0.9 0.0 0.00 0.00 0.00 53 1019.1
20190325141011 56 119 1.7 0.0 0.00 0.00 0.00 52 1019.1
20190325140510 56 118 0.9 0.0 0.00 0.00 0.00 53 1019.1
20190325140011 56 118 0.0 0.0 0.00 0.00 0.00 51 1019.1
20190325135511 57 209 0.0 0.0 0.00 0.00 0.00 50 1019.1
20190325135010 57 223 1.7 0.0 0.00 0.00 0.00 51 1019.0
20190325134511 57 223 1.7 0.0 0.00 0.00 0.00 52 1018.1
20190325134010 56 153 1.7 0.0 0.00 0.00 0.00 52 1018.2
20190325133510 55 116 0.0 0.0 0.00 0.00 0.00 51 1018.3
20190325133010 56 116 0.0 0.0 0.00 0.00 0.00 52 1018.3
20190325132510 56 86 2.6 0.0 0.00 0.00 0.00 51 1018.3
20190325132010 55 86 1.7 0.0 0.00 0.00 0.00 52 1018.3
20190325131511 55 102 0.9 0.0 0.00 0.00 0.00 53 1018.2
20190325131011 54 107 1.7 0.0 0.00 0.00 0.00 55 1018.1
20190325130511 54 108 3.5 0.0 0.00 0.00 0.00 52 1018.2
20190325130011 54 108 0.0 0.0 0.00 0.00 0.00 52 1018.3
20190325125510 54 107 3.5 0.0 0.00 0.00 0.00 54 1018.1
20190325125010 54 109 2.6 0.0 0.00 0.00 0.00 52 1018.2
20190325124510 54 98 3.5 0.0 0.00 0.00 0.00 54 1018.1
20190325124010 54 61 3.5 0.0 0.00 0.00 0.00 52 1018.0
20190325123510 54 94 2.6 0.0 0.00 0.00 0.00 53 1018.1
20190325123010 54 94 1.7 0.0 0.00 0.00 0.00 52 1018.4
20190325122510 54 88 3.5 0.0 0.00 0.00 0.00 51 1018.5
20190325122010 54 88 1.7 0.0 0.00 0.00 0.00 52 1018.6
20190325121510 53 88 1.7 0.0 0.00 0.00 0.00 54 1018.7
20190325121010 52 88 0.9 0.0 0.00 0.00 0.00 54 1018.5
20190325120511 52 88 0.9 0.0 0.00 0.00 0.00 54 1018.2
20190325120011 52 88 1.7 0.0 0.00 0.00 0.00 55 1018.2
20190325115510 52 88 0.9 0.0 0.00 0.00 0.00 54 1018.2
20190325115011 52 88 0.0 0.0 0.00 0.00 0.00 54 1018.1
20190325114510 52 88 1.7 0.0 0.00 0.00 0.00 54 1018.0
20190325114010 52 88 1.7 0.0 0.00 0.00 0.00 54 1017.9
20190325113510 52 88 0.9 0.0 0.00 0.00 0.00 54 1018.0
20190325113011 52 88 1.7 0.0 0.00 0.00 0.00 54 1018.0
20190325112511 52 88 1.7 0.0 0.00 0.00 0.00 54 1017.9
20190325112011 52 88 0.9 0.0 0.00 0.00 0.00 54 1018.0
20190325111510 52 88 0.9 0.0 0.00 0.00 0.00 54 1018.1
20190325111010 52 88 0.9 0.0 0.00 0.00 0.00 54 1018.1
20190325110511 52 88 1.7 0.0 0.00 0.00 0.00 53 1018.1
20190325110011 53 88 1.7 0.0 0.00 0.00 0.00 53 1018.1
20190325105510 53 88 1.7 0.0 0.00 0.00 0.00 53 1018.2
20190325105011 53 88 0.9 1.7 0.00 0.00 0.00 53 1018.1
20190325104511 53 88 0.9 1.7 0.00 0.00 0.00 53 1018.2
20190325104010 53 88 0.9 1.7 0.00 0.00 0.00 53 1018.3
20190325103511 53 88 0.0 1.7 0.00 0.00 0.00 52 1018.3
20190325103011 53 88 0.0 2.6 0.00 0.00 0.00 53 1018.4
20190325102510 53 88 0.0 2.6 0.00 0.00 0.00 51 1018.5
20190325102010 53 88 0.9 2.6 0.00 0.00 0.00 51 1018.5
20190325101511 53 88 0.0 2.6 0.00 0.00 0.00 51 1018.4
20190325101011 52 88 1.7 2.6 0.00 0.00 0.00 53 1018.3
20190325100510 52 88 1.7 0.0 0.00 0.00 0.00 53 1018.3
20190325100010 52 88 0.9 0.0 0.00 0.00 0.00 53 1018.4
20190325095511 53 88 0.0 2.6 0.00 0.00 0.00 52 1018.3
20190325095011 52 94 1.7 1.7 0.00 0.00 0.00 53 1018.4
20190325094511 53 130 0.9 1.7 0.00 0.00 0.00 52 1018.6
20190325094011 53 130 0.9 1.7 0.00 0.00 0.00 51 1018.7
20190325093511 53 130 0.9 1.7 0.00 0.00 0.00 51 1018.7
20190325093011 53 130 0.9 1.7 0.00 0.00 0.00 51 1018.7
20190325092510 53 130 0.9 1.7 0.00 0.00 0.00 51 1018.9
20190325092011 52 130 0.0 0.0 0.00 0.00 0.00 52 1018.8
20190325091011 53 130 1.7 2.6 0.00 0.00 0.00 51 1019.2
20190325090511 52 132 1.7 2.6 0.00 0.00 0.00 51 1019.0
20190325090011 53 132 0.9 2.6 0.00 0.00 0.00 51 1019.0
20190325085511 52 132 0.9 2.6 0.00 0.00 0.00 50 1019.1
20190325085011 52 132 0.9 2.6 0.00 0.00 0.00 51 1019.0
20190325084511 52 132 0.9 2.6 0.00 0.00 0.00 51 1019.1
20190325084011 53 132 0.9 0.0 0.00 0.00 0.00 50 1019.2
20190325083511 53 132 0.9 3.5 0.00 0.00 0.00 49 1019.2
20190325083010 52 334 1.7 2.6 0.00 0.00 0.00 49 1019.2
20190325082511 52 334 2.6 2.6 0.00 0.00 0.00 50 1019.3
20190325082011 52 332 0.0 2.6 0.00 0.00 0.00 51 1019.1
20190325081511 52 332 1.7 2.6 0.00 0.00 0.00 50 1019.3
20190325081011 53 303 1.7 2.6 0.00 0.00 0.00 50 1019.5
20190325080511 53 299 0.9 1.7 0.00 0.00 0.00 50 1019.7
20190325080011 53 299 1.7 1.7 0.00 0.00 0.00 49 1019.8
20190325075511 53 299 0.9 0.0 0.00 0.00 0.00 49 1019.9
20190325075011 54 299 0.9 1.7 0.00 0.00 0.00 48 1020.0
20190325074511 54 299 1.7 1.7 0.00 0.00 0.00 48 1020.2
20190325074011 54 299 0.9 1.7 0.00 0.00 0.00 48 1020.2
20190325073511 53 299 0.9 1.7 0.00 0.00 0.00 49 1020.2
20190325073011 52 299 0.0 1.7 0.00 0.00 0.00 51 1020.2
20190325072511 52 299 0.9 1.7 0.00 0.00 0.00 50 1020.4
20190325072013 53 299 0.0 2.6 0.00 0.00 0.00 50 1020.5
20190325071511 53 299 0.0 2.6 0.00 0.00 0.00 49 1020.5
20190325071011 53 299 0.0 1.7 0.00 0.00 0.00 48 1020.6
20190325070511 54 299 0.0 3.5 0.00 0.00 0.00 48 1020.7
20190325070011 53 299 1.7 0.0 0.00 0.00 0.00 49 1020.7
20190325065510 53 227 0.9 0.9 0.00 0.00 0.00 50 1020.7
20190325065010 53 227 0.0 0.9 0.00 0.00 0.00 48 1020.8
20190325064510 53 227 0.0 0.9 0.00 0.00 0.00 48 1020.8
20190325064010 53 227 0.0 1.7 0.00 0.00 0.00 48 1020.9
20190325063510 53 227 0.0 1.7 0.00 0.00 0.00 49 1020.9